STARLINK-30511, 57978

Orbit data source: Space-Track

STARLINK-30511, 57978 is a payload satellite owned by SpaceX/Seattle (US) in LEO that was launched on Sat, 30 Sep 2023 UTC via an FALCON 9 launch vehicle from the Air Force Eastern Test Range (AFETR). Payload-class satellites include a variety of spacecraft equipped with specific instruments for various scientific and technological missions. These include communications satellites like Starlink; space stations such as the ISS; scientific satellites like the Hubble; Earth observation satellites from companies like Planet Labs, Umbra, and HawkEye 360; GPS; miniature CubeSats for education and research; and military/defense satellites.

Loading next visibility...
Identifier
57978, 2023-151Q
Orbit
LEO
Country
Flag of USUS
Related business
Manufacturer
SpaceX/Seattle
Mission
Operational Commercial Communications
Bus & Motor
STARLINK V2M, Unknown motor
Mass
730 kg wet, ~700 kg dry
Launch date (UTC)
2023-09-30 (3 years ago)
Launch vehicle
FALCON 9
Launch site
Air Force Eastern Test Range (AFETR)
Object type
Payload
Rocket body
Debris
Shape & HBR
Box + 2 Pan, 17.7 m
Radar Cross Section
33.884 m², Large (>1 m²)

Expand to show TLE details & history
Last TLE update: 12 hours ago

TLE from 12 hours ago
0 STARLINK-30511
1 57978U 23151Q   26130.02914569 -.00000850  00000-0 -21366-4 0  9993
2 57978  43.0058   4.3419 0001302 259.4535 100.6170 15.27567849144972
Epoch: 2026-05-10T00:41Z
TLE epoch observation values (Epoch: 2026-05-10T00:41:58.187Z)
Latitude
-0.00003°
Longitude
126.01132°
Altitude
483.026 km
Speed
7.626 km/s
True Right ascension
00h 17m 22s
True Declination
0° 00' 00"
Sunlit
Object was in daylight at epoch
Visualization orbit readout
Latitude
Unknown
Longitude
Unknown
Altitude
Unknown
Speed
Unknown
Apparent Right ascension
Unknown
Apparent Declination
Unknown
Sunlit
N/A
Visualization observer readout
Local Sidereal Time
20:39:16
Azimuth
Unknown
Elevation
Unknown
Doppler factor
Unknown
Orbital elements
Apogee altitude
485.923 km
Perigee altitude
484.136 km
Semi-major axis
6,863.167 km
Eccentricity
0.00013
Inclination
43.0058°
RAAN
4.3419°
Arg. of periapsis
259.4535°
True anomaly
100.63166°
Mean anomaly
100.617°
Eccentric anomaly
100.62433°
Mean motion
3.8173 °/min
Orbital period
94.31 mins
BSTAR
-0.000021366
Loading maneuver chart data...
Computing Atmospheric mass density...
Loading historical data...
Loading historical data...
Loading historical data...
Loading historical data...
Loading historical data...
Loading historical data...
Loading historical data...

Documentation

Showing up to 5 results
|